Location: Eschentzwiller
(47.7125°N, 7.3981°E)
Time: 00:15:56
(UTC+00:00)

Cosmos 1892 - Pass Details

Date: 27 October 2020
Orbit: 504 x 523 km, 82.5° (Epoch: 26 November)

Event Time Altitude Azimuth Distance (km) Brightness Sun altitude
Rises 17:24:53 0° 357° (N) 2,665 6.3 -11.4°
Reaches altitude 10° 17:27:08 10° 5° (N) 1,773 5.3 -11.8°
Maximum altitude 17:30:49 40° 75° (ENE) 790 3.1 -12.4°
Drops below altitude 10° 17:34:28 10° 146° (SSE) 1,761 5.1 -13.0°
Sets 17:36:42 0° 154° (SSE) 2,644 6.1 -13.4°
